| time (UTC) | temp F | wind direction | speed knots | gust knots | rain 1hr in | rain 24hr in | rain mn in | humidity % | barometer mb |
| 20260902231600 | 92 | 217 | 3.5 | 7.0 | 0.00 | 0.00 | 0.00 | 60 | 1016.0 |
| 20260902230105 | 92 | 243 | 4.3 | 7.0 | 0.00 | 0.00 | 0.00 | 60 | 1016.1 |
| 20260902224618 | 92 | 226 | 3.5 | 6.1 | 0.00 | 0.00 | 0.00 | 59 | 1016.3 |
| 20260902223058 | 92 | 229 | 6.1 | 9.6 | 0.00 | 0.00 | 0.00 | 58 | 1016.2 |
| 20260902221605 | 92 | 221 | 4.3 | 9.6 | 0.00 | 0.00 | 0.00 | 59 | 1016.3 |
| 20260902220116 | 92 | 233 | 2.6 | 9.6 | 0.00 | 0.00 | 0.00 | 59 | 1016.4 |
| 20260902214559 | 92 | 228 | 5.2 | 11.3 | 0.00 | 0.00 | 0.00 | 59 | 1016.3 |
| 20260902213106 | 93 | 249 | 4.3 | 9.6 | 0.00 | 0.00 | 0.00 | 59 | 1016.3 |
| 20260902211603 | 93 | 222 | 3.5 | 9.6 | 0.00 | 0.00 | 0.00 | 59 | 1016.4 |
| 20260902210109 | 92 | 198 | 5.2 | 10.4 | 0.00 | 0.00 | 0.00 | 60 | 1016.4 |
| 20260902204605 | 92 | 214 | 6.1 | 11.3 | 0.00 | 0.00 | 0.00 | 59 | 1016.5 |
| 20260902203118 | 92 | 236 | 6.1 | 12.2 | 0.00 | 0.00 | 0.00 | 59 | 1016.6 |
| 20260902201604 | 92 | 167 | 5.2 | 11.3 | 0.00 | 0.00 | 0.00 | 61 | 1016.6 |
| 20260902200106 | 92 | 196 | 5.2 | 10.4 | 0.00 | 0.00 | 0.00 | 60 | 1016.7 |
| 20260902194605 | 92 | 255 | 4.3 | 12.2 | 0.00 | 0.00 | 0.00 | 58 | 1016.9 |
| 20260902193107 | 92 | 267 | 4.3 | 10.4 | 0.00 | 0.00 | 0.00 | 59 | 1017.0 |
| 20260902191606 | 92 | 197 | 5.2 | 13.9 | 0.00 | 0.00 | 0.00 | 61 | 1017.1 |
| 20260902190112 | 91 | 177 | 4.3 | 8.7 | 0.00 | 0.00 | 0.00 | 61 | 1017.2 |
| 20260902184602 | 91 | 278 | 7.0 | 12.2 | 0.00 | 0.00 | 0.00 | 61 | 1017.4 |
| 20260902183107 | 91 | 155 | 2.6 | 10.4 | 0.00 | 0.00 | 0.00 | 61 | 1017.3 |
| 20260902181605 | 91 | 211 | 2.6 | 10.4 | 0.00 | 0.00 | 0.00 | 62 | 1017.6 |
| 20260902174610 | 90 | 165 | 5.2 | 12.2 | 0.00 | 0.00 | 0.00 | 62 | 1017.8 |
| 20260902173103 | 90 | 188 | 6.1 | 12.2 | 0.00 | 0.00 | 0.00 | 64 | 1017.9 |
| 20260902171606 | 90 | 161 | 2.6 | 10.4 | 0.00 | 0.00 | 0.00 | 66 | 1018.0 |
| 20260902170106 | 89 | 191 | 6.1 | 9.6 | 0.00 | 0.00 | 0.00 | 66 | 1018.3 |
| 20260902164610 | 89 | 178 | 3.5 | 7.8 | 0.00 | 0.00 | 0.00 | 67 | 1018.3 |
| 20260902163113 | 89 | 235 | 2.6 | 9.6 | 0.00 | 0.00 | 0.00 | 67 | 1018.4 |
| 20260902161601 | 88 | 188 | 5.2 | 9.6 | 0.00 | 0.00 | 0.00 | 66 | 1018.5 |
| 20260902160121 | 88 | 244 | 5.2 | 7.8 | 0.00 | 0.00 | 0.00 | 69 | 1018.6 |
| 20260902154605 | 87 | 245 | 4.3 | 7.0 | 0.00 | 0.00 | 0.00 | 73 | 1018.7 |
| 20260902153108 | 86 | 177 | 1.7 | 4.3 | 0.00 | 0.00 | 0.00 | 76 | 1018.8 |
| 20260902151609 | 85 | 0 | 2.6 | 4.3 | 0.00 | 0.00 | 0.00 | 76 | 1018.7 |
| 20260902150104 | 84 | 248 | 2.6 | 7.0 | 0.00 | 0.00 | 0.00 | 77 | 1018.8 |
| 20260902144600 | 83 | 223 | 2.6 | 4.3 | 0.00 | 0.00 | 0.00 | 80 | 1018.8 |
| 20260902143109 | 82 | 244 | 1.7 | 5.2 | 0.00 | 0.00 | 0.00 | 81 | 1018.9 |
| 20260902141600 | 80 | 244 | 1.7 | 3.5 | 0.00 | 0.00 | 0.00 | 82 | 1018.8 |
| 20260902140106 | 79 | 239 | 1.7 | 3.5 | 0.00 | 0.00 | 0.00 | 84 | 1018.7 |
| 20260902134611 | 78 | 238 | 1.7 | 4.3 | 0.00 | 0.00 | 0.00 | 85 | 1018.8 |
| 20260902133108 | 78 | 252 | 2.6 | 5.2 | 0.00 | 0.00 | 0.00 | 85 | 1018.9 |
| 20260902131607 | 77 | 0 | 0.9 | 2.6 | 0.00 | 0.00 | 0.00 | 87 | 1018.8 |
| 20260902130104 | 76 | 225 | 0.0 | 3.5 | 0.00 | 0.00 | 0.00 | 89 | 1018.7 |
| 20260902124603 | 75 | 225 | 0.9 | 3.5 | 0.00 | 0.00 | 0.00 | 90 | 1018.8 |
| 20260902123104 | 74 | 203 | 0.9 | 3.5 | 0.00 | 0.00 | 0.00 | 92 | 1018.5 |
| 20260902121602 | 73 | 198 | 1.7 | 4.3 | 0.00 | 0.00 | 0.00 | 93 | 1018.4 |
| 20260902120104 | 72 | 179 | 2.6 | 5.2 | 0.00 | 0.00 | 0.00 | 94 | 1018.3 |
| 20260902114603 | 73 | 202 | 2.6 | 4.3 | 0.00 | 0.00 | 0.00 | 92 | 1018.1 |
| 20260902113106 | 74 | 211 | 2.6 | 3.5 | 0.00 | 0.00 | 0.00 | 91 | 1018.0 |
| 20260902111602 | 74 | 211 | 2.6 | 3.5 | 0.00 | 0.00 | 0.00 | 91 | 1017.8 |
| 20260902110104 | 74 | 211 | 2.6 | 3.5 | 0.00 | 0.00 | 0.00 | 89 | 1017.8 |
| 20260902104624 | 75 | 211 | 1.7 | 3.5 | 0.00 | 0.00 | 0.00 | 88 | 1017.7 |
| 20260902103104 | 75 | 211 | 2.6 | 3.5 | 0.00 | 0.00 | 0.00 | 88 | 1017.7 |
| 20260902101606 | 75 | 211 | 1.7 | 3.5 | 0.00 | 0.00 | 0.00 | 87 | 1017.8 |
| 20260902100128 | 76 | 211 | 2.6 | 4.3 | 0.00 | 0.00 | 0.00 | 85 | 1017.7 |
| 20260902094606 | 76 | 211 | 2.6 | 3.5 | 0.00 | 0.00 | 0.00 | 86 | 1017.5 |
| 20260902093125 | 76 | 211 | 1.7 | 3.5 | 0.00 | 0.00 | 0.00 | 86 | 1017.4 |
| 20260902091624 | 75 | 211 | 2.6 | 4.3 | 0.00 | 0.00 | 0.00 | 86 | 1017.4 |
| 20260902090106 | 75 | 211 | 1.7 | 3.5 | 0.00 | 0.00 | 0.00 | 90 | 1017.4 |
| 20260902084608 | 75 | 204 | 1.7 | 2.6 | 0.00 | 0.00 | 0.00 | 90 | 1017.2 |
| 20260902083111 | 76 | 204 | 1.7 | 3.5 | 0.00 | 0.00 | 0.00 | 88 | 1017.1 |
| 20260902081619 | 76 | 204 | 3.5 | 4.3 | 0.00 | 0.00 | 0.00 | 85 | 1016.9 |
| 20260902080107 | 76 | 203 | 2.6 | 4.3 | 0.00 | 0.00 | 0.00 | 85 | 1016.8 |
| 20260902074606 | 76 | 202 | 2.6 | 3.5 | 0.00 | 0.00 | 0.00 | 87 | 1016.7 |
| 20260902073107 | 76 | 202 | 2.6 | 4.3 | 0.00 | 0.00 | 0.00 | 87 | 1016.8 |
| 20260902071632 | 77 | 200 | 1.7 | 4.3 | 0.00 | 0.00 | 0.00 | 86 | 1016.8 |
| 20260902070104 | 77 | 188 | 2.6 | 5.2 | 0.00 | 0.00 | 0.00 | 86 | 1016.9 |
| 20260902064612 | 77 | 182 | 2.6 | 4.3 | 0.00 | 0.00 | 0.00 | 86 | 1016.8 |
| 20260902063133 | 76 | 182 | 3.5 | 4.3 | 0.00 | 0.00 | 0.00 | 91 | 1016.8 |
| 20260902061605 | 75 | 182 | 2.6 | 4.3 | 0.00 | 0.00 | 0.00 | 93 | 1016.9 |
| 20260902060137 | 76 | 175 | 2.6 | 3.5 | 0.00 | 0.00 | 0.00 | 90 | 1017.0 |
| 20260902054603 | 77 | 202 | 1.7 | 3.5 | 0.00 | 0.00 | 0.00 | 88 | 1017.0 |
| 20260902053105 | 78 | 202 | 2.6 | 4.3 | 0.00 | 0.00 | 0.00 | 85 | 1017.0 |
| 20260902051613 | 78 | 197 | 2.6 | 4.3 | 0.00 | 0.00 | 0.00 | 85 | 1016.8 |
| 20260902050108 | 78 | 197 | 2.6 | 4.3 | 0.00 | 0.00 | 0.00 | 85 | 1016.9 |
| 20260902044601 | 79 | 195 | 3.5 | 5.2 | 0.00 | 0.00 | 0.00 | 85 | 1016.9 |
| 20260902043109 | 79 | 190 | 2.6 | 4.3 | 0.00 | 0.00 | 0.00 | 85 | 1016.8 |
| 20260902041604 | 80 | 204 | 2.6 | 4.3 | 0.00 | 0.00 | 0.00 | 83 | 1016.9 |
| 20260902040107 | 79 | 203 | 2.6 | 4.3 | 0.00 | 0.00 | 0.00 | 84 | 1016.9 |
| 20260902034601 | 80 | 195 | 3.5 | 5.2 | 0.00 | 0.00 | 0.00 | 83 | 1017.0 |
| 20260902033117 | 80 | 203 | 3.5 | 5.2 | 0.00 | 0.00 | 0.00 | 83 | 1016.9 |
| 20260902031606 | 80 | 206 | 2.6 | 5.2 | 0.00 | 0.00 | 0.00 | 82 | 1016.8 |
| 20260902024618 | 82 | 202 | 0.9 | 4.3 | 0.00 | 0.00 | 0.00 | 78 | 1016.9 |
| 20260902023100 | 83 | 202 | 1.7 | 4.3 | 0.00 | 0.00 | 0.00 | 75 | 1016.9 |
| 20260902021602 | 84 | 179 | 2.6 | 4.3 | 0.00 | 0.00 | 0.00 | 77 | 1017.0 |
| 20260902020139 | 83 | 178 | 3.5 | 5.2 | 0.00 | 0.00 | 0.00 | 74 | 1016.9 |
| 20260902014603 | 85 | 178 | 3.5 | 6.1 | 0.00 | 0.00 | 0.00 | 72 | 1016.9 |
| 20260902013120 | 86 | 176 | 2.6 | 4.3 | 0.00 | 0.00 | 0.00 | 70 | 1017.0 |
| 20260902011602 | 86 | 176 | 2.6 | 4.3 | 0.00 | 0.00 | 0.00 | 69 | 1016.7 |
| 20260902010104 | 87 | 205 | 1.7 | 3.5 | 0.00 | 0.00 | 0.00 | 66 | 1016.4 |
| 20260902004606 | 88 | 205 | 2.6 | 3.5 | 0.00 | 0.00 | 0.00 | 65 | 1016.4 |
| 20260902003105 | 88 | 205 | 2.6 | 3.5 | 0.00 | 0.00 | 0.00 | 65 | 1016.5 |
| 20260902001619 | 88 | 205 | 2.6 | 5.2 | 0.00 | 0.00 | 0.00 | 64 | 1016.5 |
| 20260902000105 | 89 | 200 | 4.3 | 6.1 | 0.00 | 0.00 | 0.00 | 64 | 1016.5 |
| 20260901234613 | 89 | 213 | 3.5 | 6.1 | 0.00 | 0.00 | 0.00 | 63 | 1016.5 |
| 20260901233107 | 90 | 194 | 3.5 | 6.1 | 0.00 | 0.00 | 0.00 | 62 | 1016.7 |